• Join FlightAware (Why Join?)
  • Login
  • US Flag GB Flag 
23:15 EDT


 

Airport Tracker/Info


-or-


 

Live Flight TrackerFlight Track Log ✈ RPA3321 ✈ 09-May-2013 ✈ KALB - KDCA

Flight Track Log - Related Links

Times and Time Zones

All times are in EDT time to prevent confusion due to time zone crossing. See the RPA3321 flight status page for this flight to view local times or setup timezone preferences in your user account.

Time Position Orientation Groundspeed Altitude Reporting Facility
EDT Latitude Longitude Course Direction KTS MPH feet Rate Location/Type
06:53 42.7694 -73.8119 172° South 164 189 1,300  Level Boston Center
06:54 42.8208 -73.8639 323° Northwest 237 273 3,300 1,740 Climbing Boston Center
06:55 42.5354 -73.9918 171° South  Level Estimated
06:55 42.8517 -73.9014 318° Northwest 275 316 4,200  Level Boston Center
06:56 42.4844 -73.8993 127° Southeast  Level FlightAware Approximate
06:56 42.9028 -73.9650 318° Northwest 306 352 7,800  Level Boston Center
06:57 42.4141 -73.9642 172° South  Level Estimated
06:57 42.9683 -74.0461 318° Northwest 300 345 10,600  Level Boston Center
06:58 42.3490 -73.8900 140° Southeast  Level FlightAware Approximate
06:58 42.9875 -74.1658 282° West 308 354 12,700  Level Boston Center
06:59 42.2796 -73.9566 172° South  Level Estimated
06:59 42.9567 -74.2728 249° West 308 354 15,000  Level Boston Center
07:00 42.8864 -74.3586 222° Southwest 325 374 17,200 1,920 Climbing Boston Center
07:01 42.8181 -74.3367 167° South 286 329 18,900 1,860 Climbing Boston Center
07:02 42.7275 -74.2772 154° Southeast 294 338 21,000 1,860 Climbing Boston Center
07:03 42.6450 -74.2183 152° Southeast 319 367 22,700 1,800 Climbing Boston Center
07:04 42.5522 -74.1536 153° Southeast 331 381 24,700 1,620 Climbing Boston Center
07:05 42.4675 -74.0922 152° Southeast 342 394 26,000 600 Climbing Boston Center
07:06 42.3789 -74.0281 152° Southeast 347 399 26,000  Level Boston Center
07:07 42.2922 -73.9697 154° Southeast 347 399 26,000  Level Boston Center
07:08 42.2011 -73.9169 157° South 352 405 26,000  Level Boston Center
07:09 42.1028 -73.9428 191° South 341 392 26,000  Level Boston Center
07:10 42.0086 -73.9767 195° South 346 398 26,000  Level Boston Center
07:12 41.8328 -74.0364 194° South 365 420 26,000  Level New York Center
07:13 41.7403 -74.0681 194° South 360 414 26,000  Level New York Center
07:14 41.6436 -74.0994 194° South 360 414 26,000  Level New York Center
07:15 41.5656 -74.1314 197° South 355 409 26,000  Level New York Center
07:16 41.4669 -74.1653 194° South 355 409 26,000  Level New York Center
07:17 41.3700 -74.1992 195° South 360 414 26,000  Level New York Center
07:18 41.2650 -74.2322 193° South 360 414 26,000  Level New York Center
07:19 41.1722 -74.2661 195° South 355 409 26,000  Level New York Center
07:20 41.0756 -74.2997 195° South 355 409 26,000  Level New York Center
07:21 40.9808 -74.3333 195° South 360 414 26,000  Level New York Center
07:22 40.8797 -74.3664 194° South 366 421 26,000  Level New York Center
07:23 40.7825 -74.4186 202° Southwest 371 427 26,000  Level New York Center
07:24 40.7144 -74.5247 230° Southwest 366 421 26,000  Level New York Center
07:25 40.6506 -74.6333 232° Southwest 372 428 26,000  Level New York Center
07:26 40.5822 -74.7442 231° Southwest 378 435 26,000  Level New York Center
07:27 40.5100 -74.8436 226° Southwest 383 441 26,000  Level New York Center
07:28 40.4397 -74.9458 228° Southwest 383 441 26,000  Level New York Center
07:29 40.3675 -75.0478 227° Southwest 383 441 26,000  Level New York Center
07:30 40.2925 -75.1547 227° Southwest 388 447 26,000 -960 Level New York Center
07:31 40.2222 -75.2536 227° Southwest 388 447 24,200 -1,860 Descending New York Center
07:32 40.1517 -75.3522 227° Southwest 388 447 22,300 -1,140 Descending New York Center
07:33 40.0853 -75.4508 229° Southwest 376 433 22,000 -180 Descending New York Center
07:34 40.0231 -75.5472 230° Southwest 370 426 22,000 -60 Level New York Center
07:35 39.9583 -75.6483 230° Southwest 370 426 21,900 -660 Descending New York Center
07:36 39.8894 -75.7517 229° Southwest 370 426 20,800 -1,080 Descending New York Center
07:37 39.8247 -75.8553 231° Southwest 370 426 19,800 -1,020 Descending New York Center
07:38 39.7556 -75.9556 228° Southwest 370 426 18,800 -1,020 Descending New York Center
07:39 39.6906 -76.0561 230° Southwest 370 426 17,800 -1,140 Descending New York Center
07:40 39.5833 -76.2167 229° Southwest 352 405 15,900 -1,440 Descending Potomac TRACON
07:41 39.5167 -76.3167 229° Southwest 344 396 14,000 -1,860 Descending Potomac TRACON
07:42 39.4667 -76.4000 232° Southwest 334 384 12,200 -1,260 Descending Potomac TRACON
07:43 39.3833 -76.4667 212° Southwest 338 389 11,700 -1,020 Descending Potomac TRACON
07:44 39.3167 -76.5333 218° Southwest 335 386 10,300 -900 Descending Potomac TRACON
07:45 39.2333 -76.6000 212° Southwest 333 383 10,000 -180 Descending Potomac TRACON
07:46 39.1833 -76.6500 218° Southwest 321 369 10,000  Level Potomac TRACON
07:47 39.1167 -76.7167 218° Southwest 282 325 10,000 -360 Level Potomac TRACON
07:48 39.0667 -76.7833 226° Southwest 283 326 9,400 -1,200 Descending Potomac TRACON
07:49 39.0000 -76.8500 218° Southwest 277 319 7,600 -1,680 Descending Potomac TRACON
07:50 38.9500 -76.9167 226° Southwest 267 307 6,100 -780 Descending Potomac TRACON
07:51 38.8833 -76.9500 201° Southwest 265 305 6,100 -420 Level Potomac TRACON
07:52 38.8167 -76.9500 180° South 219 252 5,400 -540 Descending Potomac TRACON
07:53 38.7667 -76.9500 180° South 213 245 5,100 -540 Descending Potomac TRACON
07:54 38.7167 -76.9333 165° South 211 243 4,400 -540 Descending Potomac TRACON
07:55 38.6500 -76.9333 180° South 208 239 4,100 -480 Descending Potomac TRACON
07:56 38.6167 -76.9500 201° Southwest 204 235 3,500 -840 Descending Potomac TRACON
07:57 38.6333 -77.0000 293° West 173 199 2,600 -480 Descending Potomac TRACON
07:58 38.6667 -77.0167 339° North 174 200 2,600 -120 Level Potomac TRACON
07:59 38.7167 -77.0167 360° North 173 199 2,400 -600 Descending Potomac TRACON
08:00 38.7667 -77.0333 345° North 173 199 1,500 -900 Descending Potomac TRACON